Location: Newark
(40.2401°N, 1.4101°W)
Time: 00:25:18
(UTC+00:00)

ISS - Visible Passes

Search period start: 17 October 2019 00:00
Search period end: 27 October 2019 00:00
Orbit: 411 x 421 km, 51.6° (Epoch: 16 October)

Date Brightness Start Highest point End Pass type
(mag) Time Alt. Az. Time Alt. Az. Time Alt. Az.
23 Oct -1.4 05:34:16 10° S 05:37:05 25° SE 05:39:54 10° ENE visible
24 Oct -0.8 04:46:47 10° SSE 04:48:41 14° SE 04:50:35 10° E visible
25 Oct -3.6 05:33:07 10° SW 05:36:29 75° SE 05:39:51 10° NE visible
26 Oct -2.6 04:46:49 29° S 04:47:58 40° SE 04:51:10 10° ENE visible
